#timestamp,LO_Frequency,Hit,StdDev 
1562295615.5,286047010.4,N
1562295635.3,286047009.3,N
1562295655.1,286047011.1,N
1562295675.9,286047009.8,N
1562295695.7,286047010.6,N
1562295715.6,286047010.2,N
1562295735.4,286047010.4,N
1562295755.2,286047009.6,N
1562295775.1,286047011.0,N
1562295776.0,286047011.0,N
1562295795.8,286047014.4,N
1562295815.7,286047015.8,N
1562295835.5,286047015.9,N
1562295855.3,286047019.8,N
1562295875.2,286047021.0,N
1562295895.0,286047019.0,N
1562295895.9,286047019.0,N
1562295915.7,286047014.2,N
1562295935.6,286047013.8,N
1562295955.4,286047009.4,N
1562295975.3,286047008.6,N
1562295995.1,286047005.4,N
1562295996.0,286047005.4,N
1562296015.8,286047003.9,N
1562296035.7,286047003.8,N
1562296055.5,286047003.8,N
1562296075.3,286047007.6,N
1562296095.2,286047011.9,N
1562296115.0,286047011.2,N
1562296115.9,286047011.2,N
1562296135.8,286047010.1,N
1562296155.6,286047010.4,N
1562296175.4,286047010.0,N
1562296195.3,286047011.6,N
1562296215.1,286047011.6,N
1562296235.9,286047011.1,N
1562296255.7,286047012.9,N
1562296275.5,286047015.4,Y
1562296295.4,286047005.3,P
1562296315.2,286047007.1,N
1562296335.0,286047004.9,N
1562296335.9,286047004.9,N
1562296355.8,286047009.0,Y
1562296375.6,286047002.1,P
1562296395.5,286047000.6,N
1562296415.3,286047003.8,N
1562296435.1,286047002.8,N
1562296455.9,286047001.7,N
1562296475.7,286046999.8,N
1562296495.5,286047001.2,N
1562296515.4,286046999.7,N
1562296535.2,286046998.4,N
1562296555.1,286046995.4,N
1562296556.0,286046995.4,N
1562296575.8,286046996.0,N
1562296595.6,286046994.0,N
1562296615.5,286046994.5,N
1562296635.3,286046991.9,N
1562296655.1,286046992.3,N
1562296675.9,286046990.2,N
1562296695.7,286046989.3,N
1562296715.6,286046986.5,N
1562296735.4,286046982.9,Y
1562296755.2,286046986.8,P
1562296775.1,286046984.7,N
1562296776.0,286046984.7,N
1562296795.8,286046985.5,N
1562296815.6,286046989.5,N
1562296835.5,286046991.6,N
1562296855.3,286046988.8,N
1562296875.2,286046989.0,N
1562296895.9,286046990.7,N
1562296915.7,286046988.4,Y
1562296935.6,286046998.1,P
1562296955.4,286046997.2,N
1562296975.3,286046995.4,N
1562296995.1,286046998.9,N
1562296996.0,286046998.9,N
1562297015.8,286046998.9,N
1562297035.7,286047000.7,N
1562297055.5,286047000.6,N
1562297075.3,286047006.0,N
1562297095.2,286047003.4,N
1562297115.0,286047004.8,N
1562297115.9,286047004.8,N
1562297135.8,286047010.3,N
1562297155.6,286047011.6,N
1562297175.4,286047013.2,N
1562297195.3,286047012.5,N
1562297215.1,286047014.4,N
1562297235.8,286047018.5,N
1562297255.7,286047017.4,N
1562297275.5,286047020.0,N
1562297295.4,286047020.1,N
1562297315.2,286047020.1,N
1562297335.0,286047015.9,N
1562297335.9,286047015.9,N
1562297355.8,286047017.4,N
1562297375.6,286047019.8,N
1562297395.5,286047018.9,N
1562297415.3,286047020.6,N
1562297435.1,286047027.6,N
1562297455.9,286047031.1,Y
1562297475.7,286047021.4,P
1562297495.6,286047021.0,P
1562297515.4,286047024.9,P
1562297535.2,286047026.4,Y
1562297555.1,286047003.5,P
1562297556.0,286047003.5,N
1562297575.8,286047004.0,N
1562297595.6,286047001.9,N
1562297615.5,286047001.3,N
1562297635.3,286047000.0,N
1562297655.2,286046998.1,N
1562297675.9,286046997.2,N
1562297695.7,286046995.9,N
1562297715.6,286046995.3,N
1562297735.4,286046996.8,N
1562297755.2,286046999.9,N
1562297775.1,286047001.5,N
1562297776.0,286047001.5,N
1562297795.8,286047002.8,N
1562297815.7,286047002.0,N
1562297835.5,286047001.5,N
1562297855.3,286047003.3,N
1562297875.2,286047001.5,N
1562297895.0,286047002.4,N
1562297895.9,286047002.4,N
1562297915.7,286046999.7,N
1562297935.6,286047002.7,N
1562297955.4,286047002.5,N
1562297975.3,286047004.0,N
1562297995.1,286047002.6,N
1562297996.0,286047002.6,N
1562298015.8,286047003.9,N
1562298035.7,286047001.9,N
1562298055.5,286047000.1,N
1562298075.3,286046998.6,N
1562298095.2,286046995.2,N
1562298115.0,286046994.8,N
1562298115.9,286046994.8,N
1562298135.8,286046992.4,N
1562298155.6,286046991.0,N
1562298175.4,286046991.0,N
1562298195.3,286046993.6,N
1562298215.1,286046995.8,N
1562298235.8,286046996.0,N
1562298255.7,286046996.0,N
1562298275.5,286046994.9,N
1562298295.4,286046995.0,N
1562298315.2,286046998.7,N
1562298335.0,286047000.3,N
1562298335.9,286047000.3,N
1562298355.8,286047001.8,N
1562298375.6,286047003.3,N
1562298395.4,286047004.7,N
1562298415.3,286047005.3,N
1562298435.1,286047010.4,N
1562298455.9,286047013.7,N
1562298475.7,286047014.2,N
1562298495.5,286047014.8,N
1562298515.4,286047015.2,N
1562298535.2,286047018.5,N
1562298555.0,286047017.4,N
1562298555.9,286047017.4,N
1562298575.8,286047020.3,N
1562298595.6,286047017.7,N
1562298615.5,286047017.7,N
1562298635.3,286047017.8,N
1562298655.1,286047019.1,N
1562298675.9,286047019.6,N
1562298695.7,286047017.1,N
1562298715.5,286047015.7,N
1562298735.4,286047020.3,N
1562298755.2,286047021.5,N
1562298775.1,286047019.5,N
1562298776.0,286047019.5,N
1562298795.8,286047018.0,N
1562298815.6,286047015.8,N
1562298835.5,286047020.0,N
1562298855.3,286047021.6,Y
1562298875.1,286047007.0,P
1562298895.9,286047008.6,N
1562298915.7,286047012.0,P
1562298935.6,286047014.7,Y
1562298955.4,286047005.8,P
1562298975.2,286047007.2,P
1562298995.1,286047007.6,P
1562298996.0,286047007.6,Y
1562299015.8,286046998.6,P
1562299035.7,286047000.5,N
1562299055.5,286046999.0,N
1562299075.3,286046997.7,N
1562299095.2,286046995.0,N
1562299115.0,286047000.7,N
1562299115.9,286047000.7,N
1562299135.7,286047001.1,N
1562299155.6,286046998.1,N
1562299175.4,286046997.8,N
1562299195.3,286046993.6,N
